Weather in Lazdijai

Lithuania     54°13′52″N   23°31′04″E
temp.,
°C
wind,
m/s
gust,
m/s
humid.,
%
clouds,
%
prec.,
mm/h
press.,
hPa
HPBL,
m
28 july, wed
wed2800:00+19wsw359197 3.3 101287
03:00+18wsw339273 3.3 101249
06:00+17w11928 0.0 101212
09:00+21w1280100 0.0 1012256
12:00+25w3460100 0.0 1012894
15:00+27w46465 0.2 10112030
18:00+25w345933 0.0 1010170
21:00+22e226754 0.0 101011
29 july, thu
thu2900:00+19wsw5984100 0.8 1010194
03:00+18sw41195100 3.0 1010319
06:00+18sw2394100 1.8 100969
09:00+19wnw368896 1.8 1009330
12:00+24w356011 0.0 10091378
15:00+26wsw574787 0.0 10082357
18:00+24wnw7856100 0.0 10081162
21:00+20wsw3869100 0.0 1008263
30 july, fri
fri3000:00+18wnw3773100 0.0 1010192
03:00+16wsw11836 0.0 100911
06:00+15sw488897 0.0 1009149
09:00+20sw586077 0.0 1008450
12:00+22wsw710467 0.0 10081833
15:00+21wsw5954100 0.0 10071006
18:00+20w4957100 0.0 1007656
21:00+18sw410664 0.0 1006240
31 july, sat
sat3100:00+15sw410746 0.0 1006185
03:00+13wsw35820 0.0 100774
06:00+13sw3478100 0.0 100747
09:00+18sw4762100 0.0 1007276
12:00+24ssw464999 0.0 1006777
15:00+18ssw2486100 0.8 1006118
18:00+21ssw5881100 0.8 1004686
21:00+19sw3484100 1.4 100469
1 august, sun
sun100:00+15wnw388861 0.0 1006136
03:00+13sw48890 0.0 1007124
06:00+12sw411900 0.0 1007203
09:00+17wsw6107195 0.0 1008566
12:00+21wsw68567 0.0 10081381
15:00+23wsw5648100 0.0 10081896
18:00+22w3453100 0.0 10081163
21:00+19w1268100 0.0 100811